Year,Month,Day,Hour,Minute,Value (Times are PST for temperature in C)
2012,02,04,00,00,5.60
2012,02,04,00,01,5.60
2012,02,04,00,02,5.60
2012,02,04,00,03,5.60
2012,02,04,00,04,5.60
2012,02,04,00,05,5.60
2012,02,04,00,06,5.50
2012,02,04,00,07,5.50
2012,02,04,00,08,5.50
2012,02,04,00,09,5.50
2012,02,04,00,10,5.50
2012,02,04,00,11,5.40
2012,02,04,00,12,5.40
2012,02,04,00,13,5.40
2012,02,04,00,14,5.40
2012,02,04,00,15,5.30
2012,02,04,00,16,5.30
2012,02,04,00,17,5.30
2012,02,04,00,18,5.30
2012,02,04,00,19,5.30
2012,02,04,00,20,5.30
2012,02,04,00,21,5.20
2012,02,04,00,22,5.20
2012,02,04,00,23,5.20
2012,02,04,00,24,5.20
2012,02,04,00,25,5.20
2012,02,04,00,26,5.20
2012,02,04,00,27,5.20
2012,02,04,00,28,5.20
2012,02,04,00,29,5.20
2012,02,04,00,30,5.20
2012,02,04,00,31,5.20
2012,02,04,00,32,5.20
2012,02,04,00,33,5.20
2012,02,04,00,34,5.20
2012,02,04,00,35,5.20
2012,02,04,00,36,5.20
2012,02,04,00,37,5.20
2012,02,04,00,38,5.30
2012,02,04,00,39,5.30
2012,02,04,00,40,5.30
2012,02,04,00,41,5.30
2012,02,04,00,42,5.30
2012,02,04,00,43,5.30
2012,02,04,00,44,5.30
2012,02,04,00,45,5.30
2012,02,04,00,46,5.30
2012,02,04,00,47,5.30
2012,02,04,00,48,5.30
2012,02,04,00,49,5.30
2012,02,04,00,50,5.30
2012,02,04,00,51,5.30
2012,02,04,00,52,5.30
2012,02,04,00,53,5.30
2012,02,04,00,54,5.30
2012,02,04,00,55,5.30
2012,02,04,00,56,5.30
2012,02,04,00,57,5.30
2012,02,04,00,58,5.30
2012,02,04,00,59,5.30
2012,02,04,01,00,5.30
2012,02,04,01,01,5.30
2012,02,04,01,02,5.30
2012,02,04,01,03,5.30
2012,02,04,01,04,5.30
2012,02,04,01,05,5.30
2012,02,04,01,06,5.30
2012,02,04,01,07,5.30
2012,02,04,01,08,5.30
2012,02,04,01,09,5.30
2012,02,04,01,10,5.30
2012,02,04,01,11,5.30
2012,02,04,01,12,5.30
2012,02,04,01,13,5.30
2012,02,04,01,14,5.30
2012,02,04,01,15,5.20
2012,02,04,01,16,5.20
2012,02,04,01,17,5.20
2012,02,04,01,18,5.20
2012,02,04,01,19,5.20
2012,02,04,01,20,5.20
2012,02,04,01,21,5.20
2012,02,04,01,22,5.20
2012,02,04,01,23,5.20
2012,02,04,01,24,5.20
2012,02,04,01,25,5.20
2012,02,04,01,26,5.20
2012,02,04,01,27,5.20
2012,02,04,01,28,5.20
2012,02,04,01,29,5.20
2012,02,04,01,30,5.20
2012,02,04,01,31,5.20
2012,02,04,01,32,5.20
2012,02,04,01,33,5.20
2012,02,04,01,34,5.20
2012,02,04,01,35,5.20
2012,02,04,01,36,5.20
2012,02,04,01,37,5.20
2012,02,04,01,38,5.20
2012,02,04,01,39,5.20
2012,02,04,01,40,5.20
2012,02,04,01,41,5.20
2012,02,04,01,42,5.20
2012,02,04,01,43,5.20
2012,02,04,01,44,5.20
2012,02,04,01,45,5.20
2012,02,04,01,46,5.20
2012,02,04,01,47,5.20
2012,02,04,01,48,5.20
2012,02,04,01,49,5.20
2012,02,04,01,50,5.20
2012,02,04,01,51,5.20
2012,02,04,01,52,5.20
2012,02,04,01,53,5.20
2012,02,04,01,54,5.20
2012,02,04,01,55,5.20
2012,02,04,01,56,5.20
2012,02,04,01,57,5.20
2012,02,04,01,58,5.20
2012,02,04,01,59,5.20
2012,02,04,02,00,5.20
2012,02,04,02,01,5.20
2012,02,04,02,02,5.20
2012,02,04,02,03,5.20
2012,02,04,02,04,5.20
2012,02,04,02,05,5.20
2012,02,04,02,06,5.20
2012,02,04,02,07,5.20
2012,02,04,02,08,5.20
2012,02,04,02,09,5.20
2012,02,04,02,10,5.20
2012,02,04,02,11,5.20
2012,02,04,02,12,5.30
2012,02,04,02,13,5.20
2012,02,04,02,14,5.20
2012,02,04,02,15,5.20
2012,02,04,02,16,5.20
2012,02,04,02,17,5.20
2012,02,04,02,18,5.20
2012,02,04,02,19,5.20
2012,02,04,02,20,5.10
2012,02,04,02,21,5.10
2012,02,04,02,22,5.10
2012,02,04,02,23,5.00
2012,02,04,02,24,5.00
2012,02,04,02,25,5.00
2012,02,04,02,26,4.90
2012,02,04,02,27,4.90
2012,02,04,02,28,4.90
2012,02,04,02,29,4.90
2012,02,04,02,30,4.90
2012,02,04,02,31,4.80
2012,02,04,02,32,4.80
2012,02,04,02,33,4.80
2012,02,04,02,34,4.80
2012,02,04,02,35,4.80
2012,02,04,02,36,4.80
2012,02,04,02,37,4.80
2012,02,04,02,38,4.90
2012,02,04,02,39,4.90
2012,02,04,02,40,4.90
2012,02,04,02,41,4.90
2012,02,04,02,42,4.90
2012,02,04,02,43,4.90
2012,02,04,02,44,4.90
2012,02,04,02,45,4.80
2012,02,04,02,46,4.80
2012,02,04,02,47,4.80
2012,02,04,02,48,4.70
2012,02,04,02,49,4.70
2012,02,04,02,50,4.70
2012,02,04,02,51,4.60
2012,02,04,02,52,4.60
2012,02,04,02,53,4.60
2012,02,04,02,54,4.60
2012,02,04,02,55,4.60
2012,02,04,02,56,4.60
2012,02,04,02,57,4.50
2012,02,04,02,58,4.60
2012,02,04,02,59,4.60
2012,02,04,03,00,4.60
2012,02,04,03,01,4.60
2012,02,04,03,02,4.60
2012,02,04,03,03,4.60
2012,02,04,03,04,4.60
2012,02,04,03,05,4.60
2012,02,04,03,06,4.60
2012,02,04,03,07,4.60
2012,02,04,03,08,4.60
2012,02,04,03,09,4.60
2012,02,04,03,10,4.60
2012,02,04,03,11,4.60
2012,02,04,03,12,4.50
2012,02,04,03,13,4.50
2012,02,04,03,14,4.50
2012,02,04,03,15,4.40
2012,02,04,03,16,4.40
2012,02,04,03,17,4.40
2012,02,04,03,18,4.30
2012,02,04,03,19,4.30
2012,02,04,03,20,4.30
2012,02,04,03,21,4.30
2012,02,04,03,22,4.30
2012,02,04,03,23,4.30
2012,02,04,03,24,4.30
2012,02,04,03,25,4.30
2012,02,04,03,26,4.30
2012,02,04,03,27,4.30
2012,02,04,03,28,4.30
2012,02,04,03,29,4.30
2012,02,04,03,30,4.30
2012,02,04,03,31,4.30
2012,02,04,03,32,4.30
2012,02,04,03,33,4.20
2012,02,04,03,34,4.20
2012,02,04,03,35,4.20
2012,02,04,03,36,4.10
2012,02,04,03,37,4.10
2012,02,04,03,38,4.10
2012,02,04,03,39,4.00
2012,02,04,03,40,3.90
2012,02,04,03,41,3.90
2012,02,04,03,42,3.80
2012,02,04,03,43,3.80
2012,02,04,03,44,3.80
2012,02,04,03,45,3.70
2012,02,04,03,46,3.70
2012,02,04,03,47,3.70
2012,02,04,03,48,3.60
2012,02,04,03,49,3.60
2012,02,04,03,50,3.60
2012,02,04,03,51,3.60
2012,02,04,03,52,3.60
2012,02,04,03,53,3.70
2012,02,04,03,54,3.70
2012,02,04,03,55,3.80
2012,02,04,03,56,3.80
2012,02,04,03,57,3.90
2012,02,04,03,58,3.90
2012,02,04,03,59,4.00
2012,02,04,04,00,4.10
2012,02,04,04,01,4.10
2012,02,04,04,02,4.20
2012,02,04,04,03,4.20
2012,02,04,04,04,4.30
2012,02,04,04,05,4.30
2012,02,04,04,06,4.30
2012,02,04,04,07,4.30
2012,02,04,04,08,4.40
2012,02,04,04,09,4.40
2012,02,04,04,10,4.40
2012,02,04,04,11,4.40
2012,02,04,04,12,4.50
2012,02,04,04,13,4.50
2012,02,04,04,14,4.50
2012,02,04,04,15,4.50
2012,02,04,04,16,4.50
2012,02,04,04,17,4.60
2012,02,04,04,18,4.60
2012,02,04,04,19,4.60
2012,02,04,04,20,4.60
2012,02,04,04,21,4.60
2012,02,04,04,22,4.60
2012,02,04,04,23,4.60
2012,02,04,04,24,4.60
2012,02,04,04,25,4.60
2012,02,04,04,26,4.50
2012,02,04,04,27,4.50
2012,02,04,04,28,4.50
2012,02,04,04,29,4.50
2012,02,04,04,30,4.50
2012,02,04,04,31,4.50
2012,02,04,04,32,4.50
2012,02,04,04,33,4.50
2012,02,04,04,34,4.50
2012,02,04,04,35,4.50
2012,02,04,04,36,4.60
2012,02,04,04,37,4.60
2012,02,04,04,38,4.60
2012,02,04,04,39,4.60
2012,02,04,04,40,4.60
2012,02,04,04,41,4.60
2012,02,04,04,42,4.60
2012,02,04,04,43,4.60
2012,02,04,04,44,4.60
2012,02,04,04,45,4.60
2012,02,04,04,46,4.70
2012,02,04,04,47,4.70
2012,02,04,04,48,4.70
2012,02,04,04,49,4.80
2012,02,04,04,50,4.80
2012,02,04,04,51,4.80
2012,02,04,04,52,4.80
2012,02,04,04,53,4.80
2012,02,04,04,54,4.80
2012,02,04,04,55,4.80
2012,02,04,04,56,4.80
2012,02,04,04,57,4.80
2012,02,04,04,58,4.80
2012,02,04,04,59,4.80
2012,02,04,05,00,4.80
2012,02,04,05,01,4.80
2012,02,04,05,02,4.80
2012,02,04,05,03,4.80
2012,02,04,05,04,4.80
2012,02,04,05,05,4.80
2012,02,04,05,06,4.80
2012,02,04,05,07,4.80
2012,02,04,05,08,4.80
2012,02,04,05,09,4.90
2012,02,04,05,10,4.90
2012,02,04,05,11,4.90
2012,02,04,05,12,4.90
2012,02,04,05,13,4.90
2012,02,04,05,14,4.90
2012,02,04,05,15,4.90
2012,02,04,05,16,4.90
2012,02,04,05,17,4.90
2012,02,04,05,18,5.00
2012,02,04,05,19,4.90
2012,02,04,05,20,4.90
2012,02,04,05,21,4.90
2012,02,04,05,22,4.90
2012,02,04,05,23,4.90
2012,02,04,05,24,4.80
2012,02,04,05,25,4.80
2012,02,04,05,26,4.80
2012,02,04,05,27,4.80
2012,02,04,05,28,4.80
2012,02,04,05,29,4.70
2012,02,04,05,30,4.70
2012,02,04,05,31,4.70
2012,02,04,05,32,4.80
2012,02,04,05,33,4.80
2012,02,04,05,34,4.80
2012,02,04,05,35,4.80
2012,02,04,05,36,4.70
2012,02,04,05,37,4.70
2012,02,04,05,38,4.70
2012,02,04,05,39,4.70
2012,02,04,05,40,4.70
2012,02,04,05,41,4.70
2012,02,04,05,42,4.80
2012,02,04,05,43,4.80
2012,02,04,05,44,4.90
2012,02,04,05,45,4.90
2012,02,04,05,46,5.00
2012,02,04,05,47,5.00
2012,02,04,05,48,5.10
2012,02,04,05,49,5.10
2012,02,04,05,50,5.10
2012,02,04,05,51,5.10
2012,02,04,05,52,5.10
2012,02,04,05,53,5.10
2012,02,04,05,54,5.10
2012,02,04,05,55,5.10
2012,02,04,05,56,5.10
2012,02,04,05,57,5.00
2012,02,04,05,58,5.00
2012,02,04,05,59,4.90
2012,02,04,06,00,4.90
2012,02,04,06,01,4.90
2012,02,04,06,02,4.90
2012,02,04,06,03,4.90
2012,02,04,06,04,4.90
2012,02,04,06,05,5.00
2012,02,04,06,06,5.00
2012,02,04,06,07,5.00
2012,02,04,06,08,5.00
2012,02,04,06,09,5.00
2012,02,04,06,10,4.90
2012,02,04,06,11,4.90
2012,02,04,06,12,4.90
2012,02,04,06,13,4.90
2012,02,04,06,14,4.90
2012,02,04,06,15,4.90
2012,02,04,06,16,4.90
2012,02,04,06,17,5.00
2012,02,04,06,18,5.00
2012,02,04,06,19,4.90
2012,02,04,06,20,4.90
2012,02,04,06,21,4.90
2012,02,04,06,22,4.90
2012,02,04,06,23,4.90
2012,02,04,06,24,4.90
2012,02,04,06,25,4.80
2012,02,04,06,26,4.80
2012,02,04,06,27,4.80
2012,02,04,06,28,4.80
2012,02,04,06,29,4.80
2012,02,04,06,30,4.80
2012,02,04,06,31,4.80
2012,02,04,06,32,4.80
2012,02,04,06,33,4.80
2012,02,04,06,34,4.80
2012,02,04,06,35,4.80
2012,02,04,06,36,4.80
2012,02,04,06,37,4.80
2012,02,04,06,38,4.80
2012,02,04,06,39,4.80
2012,02,04,06,40,4.80
2012,02,04,06,41,4.80
2012,02,04,06,42,4.70
2012,02,04,06,43,4.70
2012,02,04,06,44,4.70
2012,02,04,06,45,4.70
2012,02,04,06,46,4.70
2012,02,04,06,47,4.70
2012,02,04,06,48,4.70
2012,02,04,06,49,4.60
2012,02,04,06,50,4.60
2012,02,04,06,51,4.60
2012,02,04,06,52,4.60
2012,02,04,06,53,4.60
2012,02,04,06,54,4.60
2012,02,04,06,55,4.60
2012,02,04,06,56,4.60
2012,02,04,06,57,4.60
2012,02,04,06,58,4.60
2012,02,04,06,59,4.60
2012,02,04,07,00,4.60
2012,02,04,07,01,4.60
2012,02,04,07,02,4.60
2012,02,04,07,03,4.60
2012,02,04,07,04,4.60
2012,02,04,07,05,4.60
2012,02,04,07,06,4.60
2012,02,04,07,07,4.50
2012,02,04,07,08,4.50
2012,02,04,07,09,4.50
2012,02,04,07,10,4.50
2012,02,04,07,11,4.60
2012,02,04,07,12,4.60
2012,02,04,07,13,4.60
2012,02,04,07,14,4.60
2012,02,04,07,15,4.70
2012,02,04,07,16,4.70
2012,02,04,07,17,4.80
2012,02,04,07,18,4.80
2012,02,04,07,19,4.80
2012,02,04,07,20,4.90
2012,02,04,07,21,5.00
2012,02,04,07,22,5.00
2012,02,04,07,23,5.10
2012,02,04,07,24,5.10
2012,02,04,07,25,5.10
2012,02,04,07,26,5.20
2012,02,04,07,27,5.30
2012,02,04,07,28,5.30
2012,02,04,07,29,5.30
2012,02,04,07,30,5.30
2012,02,04,07,31,5.40
2012,02,04,07,32,5.40
2012,02,04,07,33,5.40
2012,02,04,07,34,5.30
2012,02,04,07,35,5.30
2012,02,04,07,36,5.30
2012,02,04,07,37,5.20
2012,02,04,07,38,5.20
2012,02,04,07,39,5.20
2012,02,04,07,40,5.20
2012,02,04,07,41,5.20
2012,02,04,07,42,5.20
2012,02,04,07,43,5.20
2012,02,04,07,44,5.20
2012,02,04,07,45,5.20
2012,02,04,07,46,5.30
2012,02,04,07,47,5.30
2012,02,04,07,48,5.30
2012,02,04,07,49,5.30
2012,02,04,07,50,5.30
2012,02,04,07,51,5.30
2012,02,04,07,52,5.30
2012,02,04,07,53,5.30
2012,02,04,07,54,5.30
2012,02,04,07,55,5.30
2012,02,04,07,56,5.30
2012,02,04,07,57,5.30
2012,02,04,07,58,5.30
2012,02,04,07,59,5.30
2012,02,04,08,00,5.20
2012,02,04,08,01,5.30
2012,02,04,08,02,5.30
2012,02,04,08,03,5.30
2012,02,04,08,04,5.30
2012,02,04,08,05,5.30
2012,02,04,08,06,5.20
2012,02,04,08,07,5.20
2012,02,04,08,08,5.20
2012,02,04,08,09,5.20
2012,02,04,08,10,5.20
2012,02,04,08,11,5.20
2012,02,04,08,12,5.20
2012,02,04,08,13,5.20
2012,02,04,08,14,5.20
2012,02,04,08,15,5.20
2012,02,04,08,16,5.20
2012,02,04,08,17,5.20
2012,02,04,08,18,5.20
2012,02,04,08,19,5.30
2012,02,04,08,20,5.30
2012,02,04,08,21,5.30
2012,02,04,08,22,5.30
2012,02,04,08,23,5.40
2012,02,04,08,24,5.40
2012,02,04,08,25,5.50
2012,02,04,08,26,5.50
2012,02,04,08,27,5.60
2012,02,04,08,28,5.60
2012,02,04,08,29,5.60
2012,02,04,08,30,5.70
2012,02,04,08,31,5.70
2012,02,04,08,32,5.70
2012,02,04,08,33,5.80
2012,02,04,08,34,5.80
2012,02,04,08,35,5.90
2012,02,04,08,36,5.90
2012,02,04,08,37,6.00
2012,02,04,08,38,6.00
2012,02,04,08,39,6.10
2012,02,04,08,40,6.10
2012,02,04,08,41,6.20
2012,02,04,08,42,6.20
2012,02,04,08,43,6.30
2012,02,04,08,44,6.30
2012,02,04,08,45,6.40
2012,02,04,08,46,6.40
2012,02,04,08,47,6.40
2012,02,04,08,48,6.50
2012,02,04,08,49,6.50
2012,02,04,08,50,6.60
2012,02,04,08,51,6.60
2012,02,04,08,52,6.60
2012,02,04,08,53,6.70
2012,02,04,08,54,6.70
2012,02,04,08,55,6.70
2012,02,04,08,56,6.80
2012,02,04,08,57,6.80
2012,02,04,08,58,6.90
2012,02,04,08,59,6.90
2012,02,04,09,00,6.90
2012,02,04,09,01,7.00
2012,02,04,09,02,7.00
2012,02,04,09,03,7.10
2012,02,04,09,04,7.20
2012,02,04,09,05,7.20
2012,02,04,09,06,7.20
2012,02,04,09,07,7.20
2012,02,04,09,08,7.20
2012,02,04,09,09,7.20
2012,02,04,09,10,7.10
2012,02,04,09,11,7.10
2012,02,04,09,12,7.10
2012,02,04,09,13,7.10
2012,02,04,09,14,7.10
2012,02,04,09,15,7.10
2012,02,04,09,16,7.00
2012,02,04,09,17,7.00
2012,02,04,09,18,7.00
2012,02,04,09,19,7.00
2012,02,04,09,20,7.00
2012,02,04,09,21,7.00
2012,02,04,09,22,7.00
2012,02,04,09,23,7.00
2012,02,04,09,24,7.00
2012,02,04,09,25,7.10
2012,02,04,09,26,7.10
2012,02,04,09,27,7.10
2012,02,04,09,28,7.10
2012,02,04,09,29,7.10
2012,02,04,09,30,7.20
2012,02,04,09,31,7.20
2012,02,04,09,32,7.20
2012,02,04,09,33,7.20
2012,02,04,09,34,7.30
2012,02,04,09,35,7.30
2012,02,04,09,36,7.30
2012,02,04,09,37,7.40
2012,02,04,09,38,7.40
2012,02,04,09,39,7.40
2012,02,04,09,40,7.40
2012,02,04,09,41,7.50
2012,02,04,09,42,7.60
2012,02,04,09,43,7.60
2012,02,04,09,44,7.70
2012,02,04,09,45,7.80
2012,02,04,09,46,7.90
2012,02,04,09,47,8.00
2012,02,04,09,48,8.10
2012,02,04,09,49,8.10
2012,02,04,09,50,8.20
2012,02,04,09,51,8.30
2012,02,04,09,52,8.30
2012,02,04,09,53,8.40
2012,02,04,09,54,8.40
2012,02,04,09,55,8.50
2012,02,04,09,56,8.50
2012,02,04,09,57,8.60
2012,02,04,09,58,8.60
2012,02,04,09,59,8.60
2012,02,04,10,00,8.70
2012,02,04,10,01,8.80
2012,02,04,10,02,8.80
2012,02,04,10,03,8.90
2012,02,04,10,04,8.90
2012,02,04,10,05,8.90
2012,02,04,10,06,9.00
2012,02,04,10,07,9.00
2012,02,04,10,08,9.00
2012,02,04,10,09,9.00
2012,02,04,10,10,9.10
2012,02,04,10,11,9.10
2012,02,04,10,12,9.10
2012,02,04,10,13,9.10
2012,02,04,10,14,9.20
2012,02,04,10,15,9.20
2012,02,04,10,16,9.30
2012,02,04,10,17,9.40
2012,02,04,10,18,9.40
2012,02,04,10,19,9.40
2012,02,04,10,20,9.40
2012,02,04,10,21,9.40
2012,02,04,10,22,9.40
2012,02,04,10,23,9.50
2012,02,04,10,24,9.50
2012,02,04,10,25,9.60
2012,02,04,10,26,9.60
2012,02,04,10,27,9.60
2012,02,04,10,28,9.70
2012,02,04,10,29,9.70
2012,02,04,10,30,9.80
2012,02,04,10,31,9.80
2012,02,04,10,32,9.90
2012,02,04,10,33,9.90
2012,02,04,10,34,10.00
2012,02,04,10,35,10.00
2012,02,04,10,36,10.10
2012,02,04,10,37,10.10
2012,02,04,10,38,10.20
2012,02,04,10,39,10.20
2012,02,04,10,40,10.30
2012,02,04,10,41,10.30
2012,02,04,10,42,10.30
2012,02,04,10,43,10.30
2012,02,04,10,44,10.30
2012,02,04,10,45,10.40
2012,02,04,10,46,10.40
2012,02,04,10,47,10.40
2012,02,04,10,48,10.40
2012,02,04,10,49,10.40
2012,02,04,10,50,10.40
2012,02,04,10,51,10.50
2012,02,04,10,52,10.50
2012,02,04,10,53,10.60
2012,02,04,10,54,10.60
2012,02,04,10,55,10.70
2012,02,04,10,56,10.70
2012,02,04,10,57,10.70
2012,02,04,10,58,10.70
2012,02,04,10,59,10.70
2012,02,04,11,00,10.70
2012,02,04,11,01,10.70
2012,02,04,11,02,10.70
2012,02,04,11,03,10.70
2012,02,04,11,04,10.70
2012,02,04,11,05,10.70
2012,02,04,11,06,10.70
2012,02,04,11,07,10.70
2012,02,04,11,08,10.70
2012,02,04,11,09,10.80
2012,02,04,11,10,10.80
2012,02,04,11,11,10.80
2012,02,04,11,12,10.80
2012,02,04,11,13,10.90
2012,02,04,11,14,10.90
2012,02,04,11,15,10.90
2012,02,04,11,16,10.90
2012,02,04,11,17,11.00
2012,02,04,11,18,11.00
2012,02,04,11,19,11.10
2012,02,04,11,20,11.10
2012,02,04,11,21,11.20
2012,02,04,11,22,11.20
2012,02,04,11,23,11.20
2012,02,04,11,24,11.20
2012,02,04,11,25,11.30
2012,02,04,11,26,11.30
2012,02,04,11,27,11.40
2012,02,04,11,28,11.40
2012,02,04,11,29,11.50
2012,02,04,11,30,11.50
2012,02,04,11,31,11.60
2012,02,04,11,32,11.70
2012,02,04,11,33,11.70
2012,02,04,11,34,11.70
2012,02,04,11,35,11.70
2012,02,04,11,36,11.60
2012,02,04,11,37,11.60
2012,02,04,11,38,11.50
2012,02,04,11,39,11.50
2012,02,04,11,40,11.50
2012,02,04,11,41,11.50
2012,02,04,11,42,11.50
2012,02,04,11,43,11.40
2012,02,04,11,44,11.40
2012,02,04,11,45,11.40
2012,02,04,11,46,11.30
2012,02,04,11,47,11.30
2012,02,04,11,48,11.30
2012,02,04,11,49,11.30
2012,02,04,11,50,11.30
2012,02,04,11,51,11.30
2012,02,04,11,52,11.40
2012,02,04,11,53,11.40
2012,02,04,11,54,11.40
2012,02,04,11,55,11.40
2012,02,04,11,56,11.40
2012,02,04,11,57,11.50
2012,02,04,11,58,11.50
2012,02,04,11,59,11.60
2012,02,04,12,00,11.60
2012,02,04,12,01,11.60
2012,02,04,12,02,11.60
2012,02,04,12,03,11.60
2012,02,04,12,04,11.60
2012,02,04,12,05,11.60
2012,02,04,12,06,11.70
2012,02,04,12,07,11.70
2012,02,04,12,08,11.70
2012,02,04,12,09,11.80
2012,02,04,12,10,11.80
2012,02,04,12,11,11.80
2012,02,04,12,12,11.80
2012,02,04,12,13,11.80
2012,02,04,12,14,11.80
2012,02,04,12,15,11.80
2012,02,04,12,16,11.90
2012,02,04,12,17,11.90
2012,02,04,12,18,11.90
2012,02,04,12,19,11.90
2012,02,04,12,20,11.90
2012,02,04,12,21,11.90
2012,02,04,12,22,11.90
2012,02,04,12,23,12.00
2012,02,04,12,24,12.10
2012,02,04,12,25,12.10
2012,02,04,12,26,12.20
2012,02,04,12,27,12.20
2012,02,04,12,28,12.10
2012,02,04,12,29,12.10
2012,02,04,12,30,12.20
2012,02,04,12,31,12.20
2012,02,04,12,32,12.30
2012,02,04,12,33,12.30
2012,02,04,12,34,12.30
2012,02,04,12,35,12.30
2012,02,04,12,36,12.30
2012,02,04,12,37,12.30
2012,02,04,12,38,12.30
2012,02,04,12,39,12.30
2012,02,04,12,40,12.30
2012,02,04,12,41,12.30
2012,02,04,12,42,12.40
2012,02,04,12,43,12.40
2012,02,04,12,44,12.50
2012,02,04,12,45,12.50
2012,02,04,12,46,12.60
2012,02,04,12,47,12.60
2012,02,04,12,48,12.70
2012,02,04,12,49,12.70
2012,02,04,12,50,12.70
2012,02,04,12,51,12.60
2012,02,04,12,52,12.60
2012,02,04,12,53,12.60
2012,02,04,12,54,12.50
2012,02,04,12,55,12.50
2012,02,04,12,56,12.50
2012,02,04,12,57,12.60
2012,02,04,12,58,12.60
2012,02,04,12,59,12.60
2012,02,04,13,00,12.60
2012,02,04,13,01,12.60
2012,02,04,13,02,12.60
2012,02,04,13,03,12.60
2012,02,04,13,04,12.60
2012,02,04,13,05,12.60
2012,02,04,13,06,12.60
2012,02,04,13,07,12.60
2012,02,04,13,08,12.70
2012,02,04,13,09,12.70
2012,02,04,13,10,12.70
2012,02,04,13,11,12.60
2012,02,04,13,12,12.70
2012,02,04,13,13,12.70
2012,02,04,13,14,12.70
2012,02,04,13,15,12.70
2012,02,04,13,16,12.60
2012,02,04,13,17,12.60
2012,02,04,13,18,12.50
2012,02,04,13,19,12.50
2012,02,04,13,20,12.50
2012,02,04,13,21,12.50
2012,02,04,13,22,12.40
2012,02,04,13,23,12.40
2012,02,04,13,24,12.30
2012,02,04,13,25,12.30
2012,02,04,13,26,12.30
2012,02,04,13,27,12.30
2012,02,04,13,28,12.30
2012,02,04,13,29,12.40
2012,02,04,13,30,12.40
2012,02,04,13,31,12.40
2012,02,04,13,32,12.40
2012,02,04,13,33,12.40
2012,02,04,13,34,12.50
2012,02,04,13,35,12.50
2012,02,04,13,36,12.60
2012,02,04,13,37,12.60
2012,02,04,13,38,12.70
2012,02,04,13,39,12.70
2012,02,04,13,40,12.70
2012,02,04,13,41,12.80
2012,02,04,13,42,12.80
2012,02,04,13,43,12.90
2012,02,04,13,44,12.90
2012,02,04,13,45,13.00
2012,02,04,13,46,13.00
2012,02,04,13,47,13.10
2012,02,04,13,48,13.20
2012,02,04,13,49,13.20
2012,02,04,13,50,13.20
2012,02,04,13,51,13.20
2012,02,04,13,52,13.20
2012,02,04,13,53,13.20
2012,02,04,13,54,13.10
2012,02,04,13,55,13.10
2012,02,04,13,56,13.10
2012,02,04,13,57,13.10
2012,02,04,13,58,13.10
2012,02,04,13,59,13.10
2012,02,04,14,00,13.10
2012,02,04,14,01,13.10
2012,02,04,14,02,13.00
2012,02,04,14,03,13.00
2012,02,04,14,04,13.10
2012,02,04,14,05,13.10
2012,02,04,14,06,13.10
2012,02,04,14,07,13.10
2012,02,04,14,08,13.10
2012,02,04,14,09,13.00
2012,02,04,14,10,12.90
2012,02,04,14,11,12.90
2012,02,04,14,12,12.80
2012,02,04,14,13,12.80
2012,02,04,14,14,12.80
2012,02,04,14,15,12.80
2012,02,04,14,16,12.80
2012,02,04,14,17,12.80
2012,02,04,14,18,12.80
2012,02,04,14,19,12.80
2012,02,04,14,20,12.80
2012,02,04,14,21,12.80
2012,02,04,14,22,12.80
2012,02,04,14,23,12.80
2012,02,04,14,24,12.80
2012,02,04,14,25,12.90
2012,02,04,14,26,12.90
2012,02,04,14,27,12.90
2012,02,04,14,28,12.90
2012,02,04,14,29,12.90
2012,02,04,14,30,12.90
2012,02,04,14,31,12.90
2012,02,04,14,32,13.00
2012,02,04,14,33,13.00
2012,02,04,14,34,13.00
2012,02,04,14,35,13.10
2012,02,04,14,36,13.10
2012,02,04,14,37,13.10
2012,02,04,14,38,13.10
2012,02,04,14,39,13.10
2012,02,04,14,40,13.20
2012,02,04,14,41,13.20
2012,02,04,14,42,13.20
2012,02,04,14,43,13.20
2012,02,04,14,44,13.20
2012,02,04,14,45,13.20
2012,02,04,14,46,13.20
2012,02,04,14,47,13.20
2012,02,04,14,48,13.10
2012,02,04,14,49,13.10
2012,02,04,14,50,13.10
2012,02,04,14,51,13.10
2012,02,04,14,52,13.10
2012,02,04,14,53,13.10
2012,02,04,14,54,13.10
2012,02,04,14,55,13.10
2012,02,04,14,56,13.10
2012,02,04,14,57,13.10
2012,02,04,14,58,13.10
2012,02,04,14,59,13.10
2012,02,04,15,00,13.10
2012,02,04,15,01,13.20
2012,02,04,15,02,13.10
2012,02,04,15,03,13.10
2012,02,04,15,04,13.10
2012,02,04,15,05,13.10
2012,02,04,15,06,13.10
2012,02,04,15,07,13.10
2012,02,04,15,08,13.10
2012,02,04,15,09,13.10
2012,02,04,15,10,13.10
2012,02,04,15,11,13.10
2012,02,04,15,12,13.10
2012,02,04,15,13,13.10
2012,02,04,15,14,13.10
2012,02,04,15,15,13.10
2012,02,04,15,16,13.00
2012,02,04,15,17,13.00
2012,02,04,15,18,13.00
2012,02,04,15,19,13.00
2012,02,04,15,20,12.90
2012,02,04,15,21,12.90
2012,02,04,15,22,12.90
2012,02,04,15,23,13.00
2012,02,04,15,24,13.00
2012,02,04,15,25,13.00
2012,02,04,15,26,12.90
2012,02,04,15,27,12.90
2012,02,04,15,28,12.90
2012,02,04,15,29,12.90
2012,02,04,15,30,12.90
2012,02,04,15,31,12.90
2012,02,04,15,32,13.00
2012,02,04,15,33,12.90
2012,02,04,15,34,12.90
2012,02,04,15,35,13.00
2012,02,04,15,36,13.00
2012,02,04,15,37,13.00
2012,02,04,15,38,13.00
2012,02,04,15,39,13.10
2012,02,04,15,40,13.10
2012,02,04,15,41,13.00
2012,02,04,15,42,13.00
2012,02,04,15,43,12.90
2012,02,04,15,44,12.90
2012,02,04,15,45,12.90
2012,02,04,15,46,12.90
2012,02,04,15,47,12.90
2012,02,04,15,48,12.90
2012,02,04,15,49,12.90
2012,02,04,15,50,12.90
2012,02,04,15,51,12.90
2012,02,04,15,52,12.90
2012,02,04,15,53,12.90
2012,02,04,15,54,12.90
2012,02,04,15,55,12.80
2012,02,04,15,56,12.80
2012,02,04,15,57,12.80
2012,02,04,15,58,12.80
2012,02,04,15,59,12.70
2012,02,04,16,00,12.70
2012,02,04,16,01,12.70
2012,02,04,16,02,12.60
2012,02,04,16,03,12.60
2012,02,04,16,04,12.60
2012,02,04,16,05,12.60
2012,02,04,16,06,12.60
2012,02,04,16,07,12.60
2012,02,04,16,08,12.60
2012,02,04,16,09,12.60
2012,02,04,16,10,12.60
2012,02,04,16,11,12.60
2012,02,04,16,12,12.60
2012,02,04,16,13,12.60
2012,02,04,16,14,12.60
2012,02,04,16,15,12.60
2012,02,04,16,16,12.60
2012,02,04,16,17,12.60
2012,02,04,16,18,12.50
2012,02,04,16,19,12.50
2012,02,04,16,20,12.50
2012,02,04,16,21,12.60
2012,02,04,16,22,12.50
2012,02,04,16,23,12.60
2012,02,04,16,24,12.60
2012,02,04,16,25,12.60
2012,02,04,16,26,12.60
2012,02,04,16,27,12.50
2012,02,04,16,28,12.50
2012,02,04,16,29,12.50
2012,02,04,16,30,12.50
2012,02,04,16,31,12.50
2012,02,04,16,32,12.50
2012,02,04,16,33,12.50
2012,02,04,16,34,12.50
2012,02,04,16,35,12.50
2012,02,04,16,36,12.50
2012,02,04,16,37,12.50
2012,02,04,16,38,12.50
2012,02,04,16,39,12.40
2012,02,04,16,40,12.40
2012,02,04,16,41,12.40
2012,02,04,16,42,12.30
2012,02,04,16,43,12.20
2012,02,04,16,44,12.20
2012,02,04,16,45,12.20
2012,02,04,16,46,12.10
2012,02,04,16,47,12.10
2012,02,04,16,48,12.10
2012,02,04,16,49,12.00
2012,02,04,16,50,11.90
2012,02,04,16,51,11.80
2012,02,04,16,52,11.70
2012,02,04,16,53,11.60
2012,02,04,16,54,11.60
2012,02,04,16,55,11.50
2012,02,04,16,56,11.50
2012,02,04,16,57,11.40
2012,02,04,16,58,11.40
2012,02,04,16,59,11.40
2012,02,04,17,00,11.30
2012,02,04,17,01,11.30
2012,02,04,17,02,11.30
2012,02,04,17,03,11.30
2012,02,04,17,04,11.30
2012,02,04,17,05,11.30
2012,02,04,17,06,11.30
2012,02,04,17,07,11.20
2012,02,04,17,08,11.20
2012,02,04,17,09,11.10
2012,02,04,17,10,11.10
2012,02,04,17,11,11.00
2012,02,04,17,12,10.90
2012,02,04,17,13,10.90
2012,02,04,17,14,10.80
2012,02,04,17,15,10.80
2012,02,04,17,16,10.80
2012,02,04,17,17,10.70
2012,02,04,17,18,10.70
2012,02,04,17,19,10.60
2012,02,04,17,20,10.50
2012,02,04,17,21,10.50
2012,02,04,17,22,10.40
2012,02,04,17,23,10.30
2012,02,04,17,24,10.30
2012,02,04,17,25,10.20
2012,02,04,17,26,10.10
2012,02,04,17,27,10.10
2012,02,04,17,28,10.00
2012,02,04,17,29,10.00
2012,02,04,17,30,9.90
2012,02,04,17,31,9.90
2012,02,04,17,32,9.90
2012,02,04,17,33,9.90
2012,02,04,17,34,9.80
2012,02,04,17,35,9.80
2012,02,04,17,36,9.80
2012,02,04,17,37,9.80
2012,02,04,17,38,9.80
2012,02,04,17,39,9.80
2012,02,04,17,40,9.80
2012,02,04,17,41,9.80
2012,02,04,17,42,9.70
2012,02,04,17,43,9.70
2012,02,04,17,44,9.70
2012,02,04,17,45,9.70
2012,02,04,17,46,9.70
2012,02,04,17,47,9.60